Flag for Canada Weather past 2 weeks in Iqaluit, Nunavut, Canada

Now
43 °F

Partly sunny.


Feels Like: 38 °F
Forecast: 36 / 46 °F
Wind: 8 mph from Southeast

Location: Iqaluit

Current Time: Jul 1, 2015 at 1:21:30 PM

Latest Report: Jul 1, 2015 at 1:00 PM


Visibility: 30 mi

Pressure: 29.98 "Hg

Humidity: 76%

Dew point: 36 °F

Location of IqaluitLocation

Historic Weather in Iqaluit — Graph

°F

Iqaluit temperature yesterday

Maximum temperature yesterday: 39 °F (at 5:00 PM)
Minimum temperature yesterday: 32 °F (at 5:00 AM)
Average temperature yesterday: 36 °F

Past Weeks' High & Low Weather Summary

 TemperatureHumidityPressure
High43 °F (Jun 24, 11:00 AM)100% (Jun 20, 8:00 PM)30.01 "Hg (Jun 20, 8:00 PM)
Low30 °F (Jun 16, 10:00 PM)70% (Jun 18, 3:00 PM)29.22 "Hg (Jun 20, 6:00 AM)
Average35 °F88%29.71 "Hg
* Reported Jun 16 12:00 Noon — Jul 1 12:00 Noon, Iqaluit, Weather by CustomWeather, © 2015

Note: Actual official high and low records may vary slightly from our data, if they occured in-between our weather recording intervals... More about our weather records

Advertising

Iqaluit weather history for previous 24 hours

 ConditionsComfort  
Time TempWeatherWind HumidityBarometerVisibility
12:00 PM
Wed, Jul 1
43 °FPartly sunny.7 mph81%29.97 "Hg30 mi
11:00 AM39 °FPartly sunny.5 mph87%29.98 "Hg30 mi
10:00 AM41 °FPartly sunny.6 mph81%29.98 "Hg30 mi
9:00 AM41 °FPartly sunny.3 mph81%29.99 "Hg30 mi
8:00 AM37 °FPartly sunny.3 mph87%30.00 "Hg30 mi
7:00 AM37 °FPartly sunny.3 mph87%29.98 "Hg30 mi
6:00 AM37 °FPartly sunny.5 mph87%29.99 "Hg30 mi
5:00 AM36 °FPartly sunny.3 mph93%29.98 "Hg30 mi
4:00 AM36 °FPartly sunny.2 mph93%29.97 "Hg30 mi
3:00 AM36 °FPassing clouds.2 mph87%29.96 "Hg30 mi
2:00 AM36 °FPassing clouds.No wind93%29.95 "Hg30 mi
1:00 AM37 °FPassing clouds.3 mph87%29.95 "Hg30 mi
12:00 AM37 °FPassing clouds.3 mph87%29.94 "Hg30 mi
11:00 PM
Tue, Jun 30
36 °FPartly sunny.2 mph93%29.93 "Hg30 mi
10:00 PM37 °FPartly sunny.3 mph87%29.92 "Hg30 mi
9:00 PM37 °FPartly sunny.3 mph87%29.92 "Hg30 mi
8:00 PM39 °FPartly sunny.5 mph81%29.91 "Hg30 mi
7:00 PM37 °FPartly sunny.2 mph87%29.90 "Hg30 mi
6:00 PM39 °FBroken clouds.7 mph81%29.89 "Hg30 mi
5:00 PM39 °FBroken clouds.6 mph81%29.89 "Hg30 mi
4:00 PM37 °FPartly sunny.7 mph87%29.88 "Hg30 mi
3:00 PM37 °FFog.8 mph87%29.87 "Hg30 mi
2:00 PM36 °FFog.8 mph93%29.86 "Hg15 mi
1:00 PM36 °FFog.8 mph93%29.86 "Hg1 mi
Weather by CustomWeather, © 2015

See weather overviewHow to use our weather pages